Location: *
(28.3744°N, 81.5492°W)
Time: 03:30:55
(UTC+00:00)

Meteor 1-13 Rocket - Pass Details

Date: 15 June 2025
Orbit: 828 x 912 km, 81.3° (Epoch: 11 July)

Event Time Altitude Azimuth Distance (km) Brightness Sun altitude
Exits shadow 02:28:35 46° 157° (SSE) 1,198 4.5 -22.8°
Maximum altitude 02:30:15 67° 95° (E) 981 4.3 -23.1°
Drops below altitude 10° 02:36:07 10° 14° (NNE) 2,584 7.1 -24.0°
Sets 02:38:34 0° 11° (NNE) 3,519 7.9 -24.3°
